Regional Weather Roundup
Issued by NWS

Home | Current Version | Previous Version | Text Only | Print | Product List | Glossary On
Versions: 1 2 3 4 5 6 7 8 9 10 11 12 13 14 15 16 17 18 19 20 21 22 23 24 25 26 27 28 29 30 31 32 33 34 35 36 37 38 39 40 41 42 43 44 45 46 47 48 49 50
000
ASUS43 KDTX 231501
RWRMI
MICHIGAN HOURLY REGIONAL WEATHER ROUNDUP
NATIONAL WEATHER SERVICE DETROIT/PONTIAC MI
1000 AM EST MON JAN 23 2017

NOTE: "FAIR" INDICATES FEW OR NO CLOUDS BELOW 12,000 FEET WITH NO
SIGNIFICANT WEATHER AND/OR OBSTRUCTION TO VISIBILITY.

MIZ047>049-052>055-059>063-066>070-074>076-081>083-231600-
SOUTHEAST LOWER MICHIGAN

CITY           SKY/WX    TMP DP  RH WIND       PRES   REMARKS
ADRIAN         LGT RAIN  41  41 100 E9        29.68R FOG
ALMA           FOG       38  38  99 N5        29.71S VSB 1/2 WCI  35
ANN ARBOR      LGT RAIN  41  41 100 NE8       29.68R FOG
BAD AXE        CLOUDY    37  37 100 E3        29.72S FOG
CARO           CLOUDY    38  38  99 E5        29.71R FOG     WCI  34
DETROIT CITY   LGT RAIN  40  40 100 NE8       29.70R FOG     WCI  34
DETROIT        LGT RAIN  42  41  96 NE7       29.69R FOG
FLINT          FOG       39  38  96 NE6       29.70R VSB 1   WCI  35
GROSSE ILE     LGT RAIN  39  39  99 NE8       29.68R WCI  34
HILLSDALE      FOG       39  39 100 CALM      29.66R VSB 1
HOWELL         FOG       39  38  97 N5        29.68S VSB 1/4

CITY           SKY/WX    TMP DP  RH WIND       PRES   REMARKS
JACKSON        CLOUDY    41  40  96 N6        29.68R
LAMBERTVILLE   LGT RAIN  41  40  94 E6        29.68R
LANSING        CLOUDY    38  36  92 N6        29.70R FOG     WCI  33
LAPEER         LGT RAIN  37  37 100 NE3       29.71R
MASON          CLOUDY    38  38 100 CALM      29.69R FOG
MONROE         LGT RAIN  40  40 100 NE5       29.67R
PONTIAC        LGT RAIN  38  36  92 NE5       29.68R FOG     WCI  34
PORT HOPE        N/A     37  36  96 E9        29.71R WCI  30
PORT HURON     RAIN      37  37 100 NE6       29.71R WCI  33
TRI CITIES     FOG       37  37 100 N8        29.72R VSB 1/4 WCI  31
MIDLAND        FOG       38  38  97 CALM      29.72R VSB 1
TROY           DRIZZLE   39  38  95 NE5       29.71R
SAGINAW HB     FOG       36  34  93 N3        29.71S VSB 1/4
$$
MIZ043>046-050>051-056>058-064>065-071>073-077>080-231600-
SOUTHWEST LOWER MICHIGAN

CITY           SKY/WX    TMP DP  RH WIND       PRES   REMARKS
BATTLE CREEK   CLOUDY    40  40 100 N8        29.69S FOG     WCI  34
BENTON HARBOR  CLOUDY    39  37  92 N9        29.73R FOG     WCI  33
BIG RAPIDS     CLOUDY    38  37  97 CALM      29.71S FOG
COLDWATER      CLOUDY    40  40 100 N6        29.68R FOG
FREMONT        CLOUDY    36  36 100 CALM      29.73S FOG
HOLLAND        CLOUDY    37  35  92 NW6       29.73R WCI  32
GRAND RAPIDS   DRZL/FOG  41  39  93 N6        29.71R VSB 1
IONIA          CLOUDY    38  38  99 N6        29.70S FOG     WCI  34
KALAMAZOO      FOG       41  39  93 N10       29.70R VSB 3/4
LUDINGTON      FOG       38  38 100 N3        29.74S VSB 1/4
MARSHALL       CLOUDY    39  39  98 N3        29.68R FOG
MOUNT PLEASANT CLOUDY    38  38  99 NE3       29.71S FOG
MUSKEGON       CLOUDY    37  36  96 N8        29.75R FOG     WCI  31
SOUTH HAVEN    CLOUDY    37  37 100 N8        29.72S FOG     WCI  30
$$
MIZ016>042-231600-
NORTHERN LOWER MICHIGAN

CITY           SKY/WX    TMP DP  RH WIND       PRES   REMARKS
ALPENA         CLOUDY    37  35  92 E7        29.77R FOG     WCI  32
BEAVER ISLAND  FOG       36  36 100 E8        29.75S VSB 3/4 WCI  29
BELLAIRE       FOG       35  34  99 CALM      29.75R VSB<1/4
CADILLAC       CLOUDY    37  36  96 CALM      29.71R FOG
CHARLEVOIX     FOG       36  36 100 E3        29.77S VSB 1/4
FRANKFORT      FOG       38  38  99 CALM      29.74F VSB 1/4
GAYLORD        FOG       37  34  89 CALM      29.73R VSB<1/4
GRAYLING       FOG       36  36  99 NE3       29.74R VSB 1/2
HARBOR SPRINGS CLOUDY    36  36 100 E10       29.75R FOG     WCI  28
HOUGHTON LAKE  FOG       37  36  96 NE5       29.72S VSB 1/2 WCI  33
MANISTEE       FOG       37  37 100 CALM      29.74S VSB 1/4
OSCODA         CLOUDY    37  37  97 NE5       29.74S FOG     WCI  34
PELLSTON       CLOUDY    36  34  92 E8        29.76S FOG     WCI  30
ROGERS CITY    CLOUDY    36  35  96 E8        29.79R FOG     WCI  29
TRAVERSE CITY  FOG       39  38  96 CALM      29.73S VSB 1/4
$$
MIZ007>008-015-231600-
EASTERN UPPER MICHIGAN

CITY           SKY/WX    TMP DP  RH WIND       PRES   REMARKS
KINROSS        MIX PCPN  34  34 100 E15G21    29.79R FOG     WCI  24
MACKINAC ISLAN FOG       34  34 100 E8G20     29.77R VSB 1/2 WCI  27
NEWBERRY       FOG       34  33  96 E6        29.76S VSB 1/2 WCI  29
S. S. MARIE    FOG       36  35  96 E6        29.79R VSB 1   WCI  31
MUNISING         N/A     35  35 100 CALM      29.77R
$$
MIZ004>006-011>014-085-231600-
CENTRAL UPPER MICHIGAN

CITY           SKY/WX    TMP DP  RH WIND       PRES   REMARKS
MANISTIQUE     CLOUDY    35  34  97 E6        29.76R FOG     WCI  30
ESCANABA       FOG       36  36 100 N3        29.77R VSB 1/4
SAWYER-GWINN   FOG       34  34 100 NE5       29.76R VSB 1   WCI  30
$$
MIZ001>003-009>011-084-231600-
WESTERN UPPER MICHIGAN

CITY           SKY/WX    TMP DP  RH WIND       PRES   REMARKS
IRON MOUNTAIN  CLOUDY    34  31  88 NW6       29.74S WCI  29
HOUGHTON       FOG       34  33  96 W3        29.74R VSB 1/4
COPPER HARBOR    N/A     36  35  96 CALM      29.75R
IRONWOOD       FOG       34  34 100 W6        29.76R VSB<1/4 WCI  29
$$

ABBREVIATIONS USED IN REMARKS
   TC - TEMPERATURE IN CELSIUS
  WCI - WIND CHILL INDEX
   HX - HEAT INDEX
  VSB - VISIBILITY





USA.gov is the U.S. government's official web portal to all federal, state and local government web resources and services.